User: anonymous   Login
Location: Axtheid
(49.6213°N, 11.8205°E)
Time: 23:59:59
(UTC+00:00)
Language:

Cosmos 1602 Rocket - Orbit

View from above orbital plane
View from above orbital plane
View from above satellite
View from above satellite

Ground track
Ground track

The orbit data is extracted from the following two-line orbital elements,

1 15332U 84105B   21103.08357058  .00000085  00000-0  73811-5 0  9993
2 15332  82.5337 323.1301 0022691  87.0086  65.7656 14.83456545973522
Epoch (UTC): 13 April 2021 02:00:20
Eccentricity: 0.0022691
inclination: 82.5337°
perigee height: 602 km
apogee height: 634 km
right ascension of ascending node: 323.1301°
argument of perigee: 87.0086°
revolutions per day: 14.83456545
mean anomaly at epoch: 65.7656°
orbit number at epoch: 97352

The dashed part of the orbit path shows where the satellite is in the earth's shadow,  

DLR